Preview of NWS' New Version of Forecast
This preview is not operational and should not be used for support decisions.

Regional Weather Roundup (RWR)

Issued by National Weather Service (NWS)

                            
000
ASUS43 KLSX 220007
RWRMO 

WEATHER SUMMARY FOR MISSOURI
NATIONAL WEATHER SERVICE SPRINGFIELD MO
700 PM CDT SUN JUL 21 2019

NOTE: "FAIR" INDICATES FEW OR NO CLOUDS BELOW 12,000 FEET WITH NO
       SIGNIFICANT WEATHER AND/OR OBSTRUCTIONS TO VISIBILITY.
       CURRENT SKY AND/OR WEATHER CONDITIONS ARE NOT AVAILABLE FOR
       CHILLICOTHE AND FARMINGTON.

MOZ001>031-035>038-043-044-053-054-220100-
...NORTHERN AND WESTERN MISSOURI...
  
CITY           SKY/WX    TMP DP  RH WIND       PRES   REMARKS
KANSAS CTY INT CLOUDY    80  71  74 NE14      29.96F                  
6HR MIN TEMP:  79; 6HR MAX TEMP:  83;                                

KANSAS C DTWN  CLOUDY    82  69  64 NE7       29.94F                  
6HR MIN TEMP:  79; 6HR MAX TEMP:  85;                                

LEE'S SUMMIT   PTSUNNY   80  69  69 NE9       29.96F                  
6HR MIN TEMP:  78; 6HR MAX TEMP:  83;                                

ST JOSEPH      LGT RAIN  75  71  87 N13       29.99F                  
6HR MIN TEMP:  75; 6HR MAX TEMP:  83; 6HR PCP:  0.01;                

CHILLICOTHE      N/A     79  72  79 N8        30.00R                  
6HR MIN TEMP:  79; 6HR MAX TEMP:  86; 6HR PCP:  0.01;                

KIRKSVILLE     PTSUNNY   78  70  76 N13       30.00R                  
6HR MIN TEMP:  78; 6HR MAX TEMP:  87;                                

     
$$
MOZ066>068-077>081-088>096-101>105-220100-
...SOUTHWEST MISSOURI...
  
CITY           SKY/WX    TMP DP  RH WIND       PRES   REMARKS
SPRINGFIELD    MOSUNNY   91  72  53 S8        29.91F HX  98           
6HR MIN TEMP:  88; 6HR MAX TEMP:  95;                                

JOPLIN         SUNNY     90  74  59 S5        29.90F HX  99           
6HR MIN TEMP:  89; 6HR MAX TEMP:  93;                                

BRANSON        MOSUNNY   90  73  58 S5        29.95F HX  98           
               
$$
MOZ032>034-039>042-045>050-055>058-069>072-220100-
...CENTRAL MISSOURI...  
  
CITY           SKY/WX    TMP DP  RH WIND       PRES   REMARKS
COLUMBIA       CLOUDY    85  71  63 N8        29.94F HX  90           
6HR MIN TEMP:  84; 6HR MAX TEMP:  90;                                

ROLLA          SUNNY     88  70  55 W3        29.94F HX  93           
6HR MIN TEMP:  85; 6HR MAX TEMP:  90;                                

SEDALIA        PTSUNNY   80  73  79 N7        29.96F                  
6HR MIN TEMP:  78; 6HR MAX TEMP:  84;                                

WHITEMAN AFB   PTSUNNY   82  74  77 NE7       29.91S                  
WARRENSBURG    PTSUNNY   79  72  78 CALM      29.94S                  
OSAGE BEACH    MOSUNNY   86  75  69 N3        29.92F HX  95           
               
$$
MOZ051-052-059>065-220100-
...EAST CENTRAL MISSOURI...
  
CITY           SKY/WX    TMP DP  RH WIND       PRES   REMARKS
ST LOUIS INTL  PTSUNNY   88  70  55 N8        29.92R HX  93           
6HR MIN TEMP:  88; 6HR MAX TEMP:  91;                                

SPIRIT OF STL  MOSUNNY   89  73  59 NW7       29.90S HX  97           
6HR MIN TEMP:  89; 6HR MAX TEMP:  92;                                

ST CHARLES       N/A    N/A N/A N/A MISG      29.90S                  
                   
$$
MOZ072>076-082>087-097>100-106>115-220100-
...SOUTH CENTRAL AND SOUTHEAST MISSOURI...
  
CITY           SKY/WX    TMP DP  RH WIND       PRES   REMARKS
CAPE GIRARDEAU FAIR      87  76  69 S8        29.86F HX  97           
6HR MIN TEMP:  79; 6HR MAX TEMP:  91; 6HR PCP:  0.02;                

FARMINGTON     SUNNY     88  76  67 W6        29.92F HX  99           
6HR MIN TEMP:  87; 6HR MAX TEMP:  91;                                

POPLAR BLUFF   FAIR      89  78  70 SW7       29.88F HX 103           
6HR MIN TEMP:  87; 6HR MAX TEMP:  92; 6HR PCP: TRACE;                

WEST PLAINS    SUNNY     88  73  61 SW6       29.95F HX  95           
6HR MIN TEMP:  88; 6HR MAX TEMP:  92;                                

                                       
$$